Regional Weather Roundup
Issued by NWS

Home | Current Version | Previous Version | Graphics & Text | Print | Product List | Glossary On
Versions: 1 2 3 4 5 6 7 8 9 10 11 12 13 14 15 16 17 18 19 20 21 22 23 24 25 26 27 28 29 30 31 32 33 34 35 36 37 38 39 40 41 42 43 44 45 46 47 48 49 50
018
ASUS43 KFSD 310702
RWRSD

WEATHER ROUNDUP FOR SOUTH DAKOTA
NATIONAL WEATHER SERVICE SIOUX FALLS SD
200 AM CDT WED AUG 31 2016

NOTE: "FAIR" INDICATES FEW OR NO CLOUDS BELOW 12,000 FEET WITH NO
SIGNIFICANT WEATHER AND/OR OBSTRUCTIONS TO VISIBILITY.


SDZ001>005-009-010-012>017-310800-
NORTHWEST AND NORTH CENTRAL SOUTH DAKOTA

CITY           SKY/WX    TMP DP  RH WIND       PRES   REMARKS
BUFFALO          N/A     65  59  81 S12       30.09F
MOBRIDGE       CLOUDY    70  58  65 SE10      30.16S
$$

SDZ012>016-024>037-041>051-057-063-072>074-310800-
SOUTHWEST AND SOUTH CENTRAL SOUTH DAKOTA

CITY           SKY/WX    TMP DP  RH WIND       PRES   REMARKS
RAPID CTY ARPT CLEAR     63  56  78 SE7       30.20F
PIERRE         CLEAR     67  65  93 E3        30.16R
CUSTER         CLEAR     60  50  69 SW3       30.35F
ELLSWORTH AFB  CLEAR     68  57  68 S10       30.19F
PHILIP         CLEAR     70  61  73 S5        30.17S
PINE RIDGE     CLEAR     60  57  89 CALM      30.24R
WINNER         FAIR      70  64  81 S9        30.20R
$$

SDZ004>011-016>023-039-040-310800-
NORTHEAST SOUTH DAKOTA

CITY           SKY/WX    TMP DP  RH WIND       PRES   REMARKS
ABERDEEN       PTCLDY    62  55  77 CALM      30.21R
WATERTOWN      PTCLDY    60  55  83 CALM      30.23R
SISSETON         N/A     54  52  93 CALM      30.21S
$$

SDZ017-020-022-023-036>040-048>070-310800-
SOUTHEAST SOUTH DAKOTA

CITY           SKY/WX    TMP DP  RH WIND       PRES   REMARKS
SIOUX FALLS    CLEAR     60  57  89 NE5       30.21R
HURON          CLOUDY    68  60  75 SE7       30.19S
CHAMBERLAIN    CLEAR     69  67  95 E5        30.19S
MITCHELL       CLEAR     66  63  90 E3        30.20R
YANKTON        CLEAR     66  64  94 E3        30.18S
$$

ABBREVIATIONS USED IN REMARKS
   TC - TEMPERATURE IN CELSIUS
  WCI - WIND CHILL INDEX
   HX - HEAT INDEX
  VSB - VISIBILITY





USA.gov is the U.S. government's official web portal to all federal, state and local government web resources and services.